Philadelphia, PA

8:41 AM EST on December 08, 2019 (GMT -0500)
Philadelphia International

Weather History for KPHL - November, 2019

Change the Weather History Date:

Saturday, November 16, 2019

  Actual Average Record
Temperature  
Mean Temperature 38 °F 48 °F  
Max Temperature 44 °F 56 °F 76 °F (2005)
Min Temperature 33 °F 39 °F 20 °F (1933)
Degree Days  
Heating Degree Days 26 17  
Month to date heating degree days 344 240  
Since 1 July heating degree days 496 533  
Cooling Degree Days 0 0  
Month to date cooling degree days 0 0  
Year to date cooling degree days 1610 1300  
Moisture  
Dew Point 12 °F    
Average Humidity 37    
Maximum Humidity 59    
Minimum Humidity 19    
Precipitation  
Precipitation 0.00 in 0.09 in 1.46 in (1985)
Month to date precipitation 0.24 1.49  
Year to date precipitation 41.30 36.47  
Snow  
Snow 0.00 in 0.10 in 0.10 in (1906)
Month to date snowfall T 0.1  
Since 1 July snowfall T 0.1  
Since 1 September snowfall T 0.1  
Snow Depth 0.00 in    
Sea Level Pressure  
Sea Level Pressure 30.38 in    
Wind  
Wind Speed 12 mph ()    
Max Wind Speed 26 mph    
Max Gust Speed 33 mph    
Visibility 10.0 miles    
Events      
T = Trace of Precipitation, MM = Missing Value Source: Averaged Metar Reports

Daily Weather History Graph

Daily Weather History Graph

Search for Another Location

Airport or City:

Astronomy

Nov. 16, 2019 Rise Set
Actual Time 6:46 AM EST 4:44 PM EST
Civil Twilight 6:17 AM EST 5:13 PM EST
Nautical Twilight 5:44 AM EST 5:46 PM EST
Astronomical Twilight 5:12 AM EST 6:18 PM EST
Moon 8:14 PM EST (11/16) 10:38 AM EST (11/16)
Length of Visible Light 10h 55m
Length of Day
9h 57m
Waning Gibbous, 82% of the Moon is Illuminated
Nov 16
Waning Gibbous
Nov 19
Last Quarter
Nov 26
New
Dec 4
First Quarter
Dec 12
Full

Hourly Weather History & Observations

Time (EST) Temp. Windchill Dew Point Humidity Pressure Visibility Wind Dir Wind Speed Gust Speed Precip Events Conditions
12:54 AM 39.9 °F 32.9 °F 26.1 °F 58% 30.26 in 10.0 mi North 11.5 mph - N/A   Clear
1:54 AM 39.0 °F 32.3 °F 25.0 °F 57% 30.26 in 10.0 mi North 10.4 mph - N/A   Clear
2:54 AM 37.9 °F 29.6 °F 23.0 °F 55% 30.27 in 10.0 mi NNE 13.8 mph - N/A   Clear
3:54 AM 37.0 °F 30.4 °F 23.0 °F 57% 30.29 in 10.0 mi NNE 9.2 mph - N/A   Clear
4:54 AM 37.0 °F 29.3 °F 23.0 °F 57% 30.31 in 10.0 mi North 11.5 mph - N/A   Clear
5:54 AM 36.0 °F 28.5 °F 23.0 °F 59% 30.34 in 10.0 mi North 10.4 mph - N/A   Clear
6:54 AM 37.0 °F 28.1 °F 21.9 °F 54% 30.37 in 10.0 mi NNE 15.0 mph - N/A   Scattered Clouds
7:54 AM 37.9 °F 28.5 °F 21.9 °F 53% 30.39 in 10.0 mi NNE 17.3 mph 24.2 mph N/A   Scattered Clouds
8:54 AM 39.0 °F 28.8 °F 12.9 °F 34% 30.40 in 10.0 mi NE 21.9 mph 28.8 mph N/A   Partly Cloudy
9:54 AM 39.9 °F 31.1 °F 10.0 °F 29% 30.42 in 10.0 mi ENE 17.3 mph 27.6 mph N/A   Partly Cloudy
10:54 AM 39.9 °F 29.7 °F 7.0 °F 26% 30.43 in 10.0 mi NE 23.0 mph 31.1 mph N/A   Partly Cloudy
11:54 AM 42.1 °F 33.9 °F 8.1 °F 25% 30.42 in 10.0 mi ENE 17.3 mph - N/A   Partly Cloudy
12:54 PM 43.0 °F 34.8 °F 5.0 °F 21% 30.40 in 10.0 mi NE 18.4 mph 26.5 mph N/A   Partly Cloudy
1:54 PM 44.1 °F 37.1 °F 5.0 °F 20% 30.39 in 10.0 mi ENE 15.0 mph 23.0 mph N/A   Partly Cloudy
2:54 PM 43.0 °F 35.4 °F 5.0 °F 21% 30.40 in 10.0 mi ENE 16.1 mph 24.2 mph N/A   Partly Cloudy
3:54 PM 41.0 °F 33.9 °F 5.0 °F 23% 30.40 in 10.0 mi ENE 12.7 mph 23.0 mph N/A   Partly Cloudy
4:54 PM 37.9 °F 30.9 °F 7.0 °F 28% 30.41 in 10.0 mi ENE 10.4 mph 20.7 mph N/A   Scattered Clouds
5:54 PM 36.0 °F 29.6 °F 6.1 °F 29% 30.43 in 10.0 mi ENE 8.1 mph - N/A   Scattered Clouds
6:54 PM 36.0 °F 29.0 °F 5.0 °F 27% 30.45 in 10.0 mi ENE 9.2 mph - N/A   Partly Cloudy
7:54 PM 36.0 °F 26.3 °F 5.0 °F 27% 30.42 in 10.0 mi NE 16.1 mph - N/A   Partly Cloudy
8:54 PM 36.0 °F 27.1 °F 6.1 °F 29% 30.41 in 10.0 mi NE 13.8 mph - N/A   Scattered Clouds
9:54 PM 34.0 °F 23.0 °F 3.9 °F 28% 30.39 in 10.0 mi NNE 18.4 mph - N/A   Scattered Clouds
10:54 PM 33.1 °F 23.4 °F 5.0 °F 31% 30.40 in 10.0 mi NNE 13.8 mph - N/A   Scattered Clouds
11:54 PM 34.0 °F 23.4 °F 6.1 °F 31% 30.39 in 10.0 mi NNE 17.3 mph - N/A   Mostly Cloudy